Location: Bothwell
(42.3833°S, 147.0000°E)
Time: 19:38:53
(UTC+11:00)

AO-85 - Pass Details

Date: 04 October 2022
Orbit: 513 x 757 km, 64.8° (Epoch: 24 November)

Event Time Altitude Azimuth Distance (km) Brightness Sun altitude
Rises 20:24:08 0° 335° (NNW) 2,695 ? -12.1°
Reaches altitude 10° 20:26:15 10° 337° (NNW) 1,837 ? -12.5°
Maximum altitude 20:30:21 69° 59° (ENE) 630 ? -13.2°
Drops below altitude 10° 20:34:49 10° 142° (SE) 1,999 ? -14.0°
Sets 20:37:13 0° 144° (SE) 2,957 ? -14.4°
